Weather History for Covington, KY

Change the Weather History Date:

Monday, July 8, 2013

  Actual Average Record
Temperature  
Mean Temperature 78 °F 76 °F  
Max Temperature 87 °F 86 °F 103 °F (1936)
Min Temperature 68 °F 66 °F 51 °F (1984)
Degree Days  
Heating Degree Days 0 0  
Month to date heating degree days 0 0  
Since 1 June heating degree days 1 15  
Since 1 July heating degree days 0 0  
Cooling Degree Days 13 11  
Month to date cooling degree days 62 86  
Year to date cooling degree days 440 406  
Since 1 June cooling degree days 301 312  
Growing Degree Days 26 (Base 50)    
Moisture  
Dew Point 70 °F    
Average Humidity 79    
Maximum Humidity 100    
Minimum Humidity 57    
Precipitation  
Precipitation 0.00 in 0.13 in 2.61 in (1980)
Month to date precipitation 3.75 0.94  
Year to date precipitation 27.65 23.56  
Snow  
Snow 0.00 in 0.00 in 0.00 in ()
Month to date snowfall 0.0 0.0  
Since 1 June snowfall 0.0 0.0  
Since 1 July snowfall 0.0 0.0  
Snow Depth 0.00 in    
Sea Level Pressure  
Sea Level Pressure 30.09 in    
Wind  
Wind Speed 7 mph (SSW)    
Max Wind Speed 12 mph    
Max Gust Speed 26 mph    
Visibility 9 miles    
Events      
T = Trace of Precipitation, MM = Missing Value Source: NWS Daily Summary

Daily Weather History Graph

Daily Weather History Graph

Search for Another Location

Airport:

Trip Planner

Search our weather history database for the weather conditions in past years. The results will help you decide how hot, cold, wet, or windy it might be!

Date:

Astronomy

Jul. 08, 2013 Rise Set
Actual Time 6:20 AM EDT 9:06 PM EDT
Civil Twilight 5:48 AM EDT 9:38 PM EDT
Nautical Twilight 5:09 AM EDT 10:17 PM EDT
Astronomical Twilight 4:24 AM EDT 11:02 PM EDT
Moon 6:48 AM EDT (7/8) 9:09 PM EDT (7/8)
Length of Visible Light 15h 49m
Length of Day
14h 46m
New Moon, 0% of the Moon is Illuminated
Jul 8
New Moon
Jul 15
First Quarter
Jul 22
Full
Jul 29
Last Quarter
Aug 6
New

Hourly Weather History & Observations

Time (EDT) Temp. Heat Index Dew Point Humidity Pressure Visibility Wind Dir Wind Speed Gust Speed Precip Events Conditions
12:52 AM 66.9 °F - 66.0 °F 97% 30.09 in 9.0 mi SSW 5.8 mph - N/A   Partly Cloudy
1:52 AM 69.1 °F - 66.9 °F 93% 30.09 in 9.0 mi SSW 4.6 mph - N/A   Clear
2:52 AM 69.1 °F - 66.9 °F 93% 30.09 in 9.0 mi SSW 5.8 mph - N/A   Partly Cloudy
3:52 AM 69.1 °F - 66.9 °F 93% 30.09 in 8.0 mi SSW 5.8 mph - N/A   Mostly Cloudy
4:52 AM 68.0 °F - 66.9 °F 96% 30.09 in 7.0 mi SSW 4.6 mph - N/A   Mostly Cloudy
5:52 AM 69.1 °F - 66.9 °F 93% 30.10 in 7.0 mi SSW 6.9 mph - N/A   Mostly Cloudy
6:52 AM 69.1 °F - 66.9 °F 93% 30.10 in 6.0 mi SSW 5.8 mph - N/A   Mostly Cloudy
7:52 AM 71.1 °F - 68.0 °F 90% 30.11 in 7.0 mi SSW 3.5 mph - N/A   Partly Cloudy
8:52 AM 73.9 °F - 69.1 °F 85% 30.13 in 8.0 mi SW 8.1 mph - N/A   Partly Cloudy
9:52 AM 78.1 °F - 70.0 °F 76% 30.12 in 10.0 mi SSW 6.9 mph - N/A   Partly Cloudy
10:52 AM 80.1 °F 83.2 °F 70.0 °F 71% 30.13 in 10.0 mi SW 11.5 mph - N/A   Partly Cloudy
11:52 AM 82.0 °F 86.3 °F 71.1 °F 69% 30.14 in 10.0 mi WSW 6.9 mph - N/A   Mostly Cloudy
12:52 PM 82.9 °F 87.5 °F 71.1 °F 67% 30.14 in 10.0 mi SW 8.1 mph - N/A   Overcast
1:52 PM 84.0 °F 89.6 °F 72.0 °F 67% 30.12 in 10.0 mi SW 11.5 mph - N/A   Mostly Cloudy
2:52 PM 84.9 °F 90.7 °F 72.0 °F 65% 30.11 in 10.0 mi SSW 4.6 mph - N/A   Mostly Cloudy
3:52 PM 86.0 °F 90.7 °F 70.0 °F 59% 30.09 in 10.0 mi SW 6.9 mph - N/A   Mostly Cloudy
4:52 PM 84.0 °F 89.0 °F 71.1 °F 65% 30.07 in 10.0 mi SW 5.8 mph - N/A   Overcast
5:52 PM 82.9 °F 87.5 °F 71.1 °F 67% 30.05 in 10.0 mi SSW 5.8 mph - N/A   Overcast
6:52 PM 84.0 °F 89.0 °F 71.1 °F 65% 30.04 in 10.0 mi SW 8.1 mph - N/A   Scattered Clouds
7:52 PM 82.0 °F 86.7 °F 72.0 °F 71% 30.05 in 9.0 mi SSW 4.6 mph - N/A   Scattered Clouds
8:52 PM 80.1 °F 84.2 °F 73.0 °F 79% 30.07 in 8.0 mi SSW 4.6 mph - N/A   Scattered Clouds
9:52 PM 78.1 °F - 73.0 °F 84% 30.07 in 8.0 mi SSW 6.9 mph - N/A   Mostly Cloudy
10:52 PM 78.1 °F - 72.0 °F 81% 30.08 in 10.0 mi SSW 6.9 mph - N/A   Overcast
11:52 PM 77.0 °F - 72.0 °F 84% 30.08 in 10.0 mi SSW 5.8 mph - N/A   Overcast